Voltar ao catálogo

MOLNIYA 3-10

AtivoComunicaçõesHEO
NORAD 11057·PAYLOAD·🇷🇺 Russia

Lançado Oct 13, 1978 de Plesetsk Cosmodrome

Loading…

Próximas Passagens (próximas 24 horas)

TLE

AtualizadoSource: Space-Track

Época: Sep 14, 2026, 05:48 UTC

1 11057U 78095A   26257.24196298  .00000194  00000-0  73316-2 0  9992
2 11057  63.7097 218.0217 5540133 312.2561  12.3739  4.09915017447253

Acompanhe MOLNIYA 3-10 em tempo real com AllMySat

Download on the App Store